Tracking 29892 objects as of 21-Nov-2024
HD Live streaming from Space Station
objects crossing your sky now

STARLINK-11198

Track STARLINK-11198 now!
10-day predictions
STARLINK-11198 is classified as:


NORAD ID: 60114
Int'l Code: 2024-118B
Perigee: 366.0 km
Apogee: 367.7 km
Inclination: 53.2 °
Period: 91.7 minutes
Semi major axis: 6737 km
RCS: Unknown
Launch date: June 24, 2024
Source: United States (US)
Launch site: AIR FORCE WESTERN TEST RANGE (AFWTR)
Your satellite tracking list
Your tracking list is empty




NASA's NSSDC Master Catalog

Two Line Element Set (TLE):
1 60114U 24118B   24325.63229921  .00013139  00000-0  11308-3 0  9991
2 60114  53.1557  38.4578 0001241 133.4116 226.7005 15.69722203 23534
Source of the keplerian elements: AFSPC